Back to catalog

DELTA 1 DEB

AliveSSO
NORAD 12825·DEBRIS·🇺🇸 United States

Launched Mar 5, 1978 from Vandenberg Space Force Base

Loading…

Next Passes (next 24 hours)

TLE

FreshSource: Space-Track

Epoch: Sep 13, 2026, 03:29 UTC

1 12825U 78026EW  26256.14563163 -.00000024  00000-0  16690-4 0  9994
2 12825  99.3475 133.0564 0059153 263.3611 251.0320 13.94962617317220

Track DELTA 1 DEB in real time with AllMySat

Download on the App Store